[[[{"header":{"parameterUnit":"kt","parameterCategory":2,"dx":1,"dy":1,"la1":30.253999710083008,"la2":30.299108505249023,"lo1":-89.0895004272461,"lo2":-89.04439544677734,"nx":28,"ny":28,"refTime":"2022-10-09T21:00:00:Z","depth":0,"parameterNumber":1,"parameterNumberName":"U-component_of_WINDS"},"data":[-8.2472,-8.2726,-8.2702,-8.2982,-8.3007,-8.3194,-8.3254,-8.3328,-8.3381,-8.3601,-8.3724,-8.3727,-8.3771,-8.3913,-8.4045,-8.4043,-8.4102,-8.4209,-8.4189,-8.373,-8.3665,-8.3603,-8.3541,-8.4222,-8.4222,-8.4668,-8.4673,-8.4676,-8.2136,-8.2164,-8.2304,-8.2424,-8.2544,-8.2426,-8.2512,-8.2621,-8.2792,-8.286,-8.2979,-8.3172,-8.3322,-8.333,-8.347,-8.3589,-8.3543,-8.3629,-8.3621,-8.363,-8.3138,-8.3072,-8.3664,-8.3664,-8.3664,-8.3664,-8.3664,-8.3664,-8.1517,-8.1671,-8.1729,-8.1881,-8.1935,-8.2016,-8.2158,-8.2156,-8.2294,-8.2437,-8.2381,-8.2575,-8.2638,-8.2796,-8.2843,-8.2993,-8.2893,-8.2981,-8.3004,-8.3028,-8.3058,-8.2419,-8.3016,-8.3014,-8.3012,-8.3011,-8.301,0,-8.1057,-8.1026,-8.1159,-8.1286,-8.1395,-8.1492,-8.1575,-8.1663,-8.1589,-8.1707,-8.1875,-8.1968,-8.2152,-8.2308,-8.2434,-8.2464,-8.2357,-8.2342,-8.2403,-8.2435,-8.2446,-8.2445,-8.1645,-8.2326,-8.232,-8.2316,-8.2313,-8.231,-8.0433,-8.0615,-8.0664,-8.0761,-8.08,-8.0958,-8.1047,-8.0968,-8.1067,-8.1159,-8.1299,-8.1454,-8.1574,-8.1848,-8.1846,-8.1985,-8.1934,-8.2197,-8.1954,-8.1976,-8.1941,-8.1932,-8.195,-8.2247,-8.2255,-8.2262,-8.2267,0,-8.0085,-8.0043,-8.0317,-8.0346,-8.0359,-8.0555,-8.058,-8.0731,-8.0712,-8.0918,-8.0961,-8.0935,-8.1102,-8.1056,-8.1238,-8.121,-8.1533,-8.1479,-8.151,-8.1498,-8.173,-8.171,-8.2488,-8.2586,-8.1878,-8.1884,-8.189,0,-7.9537,-7.978,-7.9703,-7.9864,-8.013,-8.0043,-8.031,-8.032,-8.0372,-8.0533,-8.04,-8.0554,-8.0471,-8.0619,-8.0578,-8.0833,-8.0867,-8.0861,-8.0848,-8.0875,-8.0877,-8.0929,-8.0898,-8.0808,-8.0804,-8.08,-8.0797,0,-7.8998,-7.924,-7.9501,-7.955,-7.9607,-7.9732,-7.9761,-7.9818,-7.9907,-8.0015,-8.0072,-8.0204,-8.0278,-8.0383,-8.0329,-8.0166,-8.0639,-8.0405,-8.0634,-8.0636,-8.0744,-8.0739,-8.1436,-8.0792,-8.0791,-8.079,-8.0788,0,-7.855,-7.8658,-7.9043,-7.9086,-7.9154,-7.9327,-7.9449,-7.9586,-7.9656,-7.964,-7.9725,-7.9632,-7.9849,-7.962,-7.992,-7.9723,-7.9804,-7.9817,-7.9833,-7.9853,-7.9598,-8.0,-8.0666,-8.0736,-7.9866,-7.9859,-7.9852,0,-7.7945,-7.8321,-7.8248,-7.8617,-7.8784,-7.8622,-7.8812,-7.8877,-7.8872,-7.9013,-7.9006,-7.917,-7.8988,-7.9033,-7.9187,-7.9188,-7.9443,-7.9152,-7.9362,-7.9371,-7.935,-7.9961,-8.0074,-8.0525,-7.9753,-7.9763,-7.9771,0,-7.747,-7.7535,-7.7607,-7.7658,-7.773,-7.787,-7.8088,-7.8229,-7.8328,-7.8416,-7.8599,-7.8826,-7.8699,-7.8775,-7.8714,-7.8877,-7.9268,-7.872,-7.872,-7.8822,-7.9698,-7.9803,-7.988,-7.9191,-7.9203,-7.9212,-7.9692,0,-7.6806,-7.6988,-7.7177,-7.7296,-7.7396,-7.7624,-7.7572,-7.7684,-7.7613,-7.7601,-7.7868,-7.7911,-7.8059,-7.8131,-7.8065,-7.8453,-7.8381,-7.8245,-7.8021,-7.8421,-7.8579,-7.8642,-7.779,-7.7783,-7.7777,-7.7773,0,0,-7.6239,-7.6499,-7.6412,-7.662,-7.67,-7.6528,-7.6776,-7.6834,-7.6956,-7.7015,-7.6888,-7.7218,-7.726,-7.759,-7.771,-7.777,-7.7835,-7.7698,-7.823,-7.8282,-7.8329,-7.8498,-7.8565,-7.7762,-7.776,-7.7758,-7.7756,0,-7.5986,-7.6028,-7.6273,-7.6327,-7.6405,-7.638,-7.6439,-7.6487,-7.6491,-7.6751,-7.6609,-7.6762,-7.7029,-7.7092,-7.716,-7.7655,-7.7541,-7.7703,-7.7987,-7.8173,-7.8232,-7.8284,-7.8463,-7.8527,-7.7742,-7.7743,-7.7744,0,-7.5511,-7.5545,-7.5657,-7.5827,-7.5877,-7.6054,-7.5804,-7.6002,-7.6133,-7.5939,-7.62,-7.6219,-7.6299,-7.6617,-7.6758,-7.6647,-7.7277,-7.7069,-7.7104,-7.712,-7.7298,-7.7369,-7.7432,-7.6601,-7.6597,-7.6593,0,0,-7.53,-7.5468,-7.548,-7.5769,-7.581,-7.5776,-7.5865,-7.5804,-7.5878,-7.5909,-7.593,-7.6008,-7.6161,-7.6265,-7.6406,-7.6762,-7.6773,-7.693,-7.6984,-7.7028,-7.7068,-7.7258,-7.7328,-7.6579,-7.6579,-7.6578,0,0,-7.52,-7.5224,-7.5138,-7.5467,-7.5541,-7.5574,-7.5753,-7.565,-7.5772,-7.5741,-7.5649,-7.5666,-7.5961,-7.5986,-7.58,-7.6326,-7.6105,-7.6148,-7.63,-7.6367,-7.642,-7.6409,-7.5554,0,0,0,0,0,-7.4915,-7.5219,-7.5142,-7.5189,-7.5405,-7.5616,-7.5643,-7.5573,-7.5417,-7.556,-7.5561,-7.5432,-7.5866,-7.57,-7.575,-7.5959,-7.6395,-7.6428,-7.6459,-7.6737,-7.6808,-7.6868,0,0,0,0,0,0,-7.4932,-7.4991,-7.5134,-7.518,-7.5228,-7.5604,-7.5325,-7.5314,-7.5399,-7.5371,-7.5436,-7.5435,-7.538,-7.567,-7.5716,-7.5916,-7.5538,-7.6408,-7.6436,-7.6461,-7.6762,-7.682,-7.6869,0,0,0,0,0,-7.4946,-7.4993,-7.5358,-7.5175,-7.5217,-7.5196,-7.5312,-7.5301,-7.5367,-7.5369,-7.5363,-7.5305,-7.5387,-7.5421,-7.5697,-7.5897,-7.5506,-7.5523,-7.6426,-7.6448,-7.6467,-7.679,0,0,0,0,0,0,-7.4957,-7.4985,-7.5364,-7.5374,-7.5054,-7.5173,-7.5189,-7.5291,-7.5358,-7.5355,-7.5233,-7.521,-7.5397,-7.5421,-7.5448,-7.5894,-7.5479,-7.5497,-7.5508,-7.6443,-7.646,-7.6475,0,0,0,0,0,0,-7.4959,-7.4995,-7.537,-7.5221,-7.5213,-7.5153,-7.5167,-7.5391,-7.5361,-7.5217,-7.5199,-7.5222,-7.5357,-7.5423,-7.5443,-7.5795,-7.5459,-7.5476,-7.5488,-7.5495,-7.6456,-7.647,0,0,0,0,0,0,-7.4973,-7.5003,-7.5217,-7.5212,-7.5204,-7.5312,-7.5349,-7.5575,-7.5231,-7.5217,-7.5198,-7.5183,-7.5363,-7.5381,-7.5441,-7.5785,-7.5793,-7.546,-7.5471,-7.548,-7.5485,0,0,0,0,0,0,0,-7.4984,-7.4796,-7.5305,-7.5205,-7.5197,-7.5468,-7.547,-7.5473,-7.5228,-7.5215,-7.5202,-7.519,-7.5363,-7.5381,-7.54,-7.5777,0,0,-7.5458,-7.5466,0,0,0,0,0,0,0,0,-7.4782,-7.4793,-7.5305,-7.5307,-7.5309,-7.5468,-7.547,-7.5473,-7.5226,-7.5215,-7.5205,-7.5195,-7.5368,-7.5383,-7.5398,0,0,0,0,0,0,0,0,0,0,0,0,0,0,0,-7.5305,-7.5307,0,-7.5468,-7.547,-7.5472,-7.5224,-7.5216,-7.5207,-7.5199,-7.5372,-7.5384,-7.5397,0,0,0,0,0,0,0,0,0,0,0,0,0,0,0,0,0,0,0,0,0,0,0,0,0,0,0,0,0,0,0,0,0,0,0,0,0,0,0,0,0,0,0,0,0,0,0,0,0,0,0,0,0,0,0,0,0,0,0,0,0,0,0,0,0,0,0,0,0]}],[{"header":{"parameterUnit":"kt","parameterCategory":2,"dx":1,"dy":1,"la1":30.253999710083008,"la2":30.299108505249023,"lo1":-89.0895004272461,"lo2":-89.04439544677734,"nx":28,"ny":28,"refTime":"2022-10-09T21:00:00:Z","depth":0,"parameterNumber":2,"parameterNumberName":"V-component_of_WINDS"},"data":[-7.3754,-7.3887,-7.3884,-7.4032,-7.4054,-7.4154,-7.4188,-7.4231,-7.4264,-7.4381,-7.4446,-7.4454,-7.4483,-7.4558,-7.4627,-7.4628,-7.4658,-7.4707,-7.4699,-7.4486,-7.4456,-7.4427,-7.4396,-7.4713,-7.4714,-7.4921,-7.4923,-7.4925,-7.3592,-7.3616,-7.3695,-7.3768,-7.3835,-7.3784,-7.3838,-7.3896,-7.3986,-7.4028,-7.4093,-7.4195,-7.4273,-7.4286,-7.436,-7.4419,-7.4399,-7.4439,-7.4434,-7.4439,-7.4211,-7.4178,-7.4454,-7.4454,-7.4454,-7.4454,-7.4454,-7.4454,-7.3298,-7.3379,-7.3421,-7.3507,-7.3543,-7.3591,-7.3666,-7.3675,-7.3751,-7.3831,-7.381,-7.3912,-7.3951,-7.4039,-7.4066,-7.4143,-7.4097,-7.4139,-7.415,-7.4161,-7.4173,-7.3871,-7.4156,-7.4155,-7.4154,-7.4153,-7.4153,0,-7.3081,-7.3072,-7.3149,-7.3223,-7.3285,-7.3343,-7.3394,-7.344,-7.3419,-7.3483,-7.3573,-7.3624,-7.3723,-7.3806,-7.3875,-7.3895,-7.3848,-7.3843,-7.3872,-7.3883,-7.3883,-7.3883,-7.3509,-7.3835,-7.3832,-7.383,-7.3828,-7.3827,-7.2782,-7.2878,-7.2921,-7.2975,-7.3003,-7.309,-7.314,-7.3116,-7.317,-7.3228,-7.3299,-7.3383,-7.3448,-7.3592,-7.3599,-7.3673,-7.3651,-7.3775,-7.3662,-7.3668,-7.3651,-7.3645,-7.3653,-7.3798,-7.3802,-7.3805,-7.3807,0,-7.2613,-7.2608,-7.2755,-7.2789,-7.28,-7.2901,-7.2928,-7.3007,-7.3007,-7.3115,-7.3139,-7.3139,-7.3227,-7.3215,-7.3314,-7.3304,-7.3463,-7.344,-7.3449,-7.3443,-7.3552,-7.3542,-7.3912,-7.3958,-7.363,-7.3633,-7.3636,0,-7.2356,-7.2483,-7.2467,-7.2553,-7.2691,-7.2664,-7.2801,-7.2815,-7.2851,-7.2936,-7.2882,-7.2962,-7.2934,-7.3012,-7.2998,-7.3126,-7.3145,-7.3145,-7.314,-7.315,-7.315,-7.3177,-7.3162,-7.3127,-7.3125,-7.3123,-7.3122,0,-7.2092,-7.2234,-7.2373,-7.2404,-7.2453,-7.2519,-7.2542,-7.2582,-7.2632,-7.2695,-7.2726,-7.2801,-7.2842,-7.2899,-7.2881,-7.2804,-7.3038,-7.2929,-7.3038,-7.3038,-7.309,-7.3087,-7.3418,-7.3119,-7.3119,-7.3118,-7.3117,0,-7.1884,-7.1951,-7.2155,-7.2193,-7.2232,-7.2323,-7.2396,-7.2472,-7.2518,-7.2516,-7.2565,-7.2528,-7.2641,-7.2533,-7.2687,-7.2591,-7.2634,-7.2644,-7.2652,-7.2661,-7.254,-7.2727,-7.3045,-7.3077,-7.2668,-7.2665,-7.2661,0,-7.1582,-7.1787,-7.1766,-7.196,-7.2053,-7.1986,-7.2087,-7.2131,-7.2137,-7.2215,-7.222,-7.2309,-7.2226,-7.2252,-7.233,-7.2339,-7.2463,-7.2322,-7.243,-7.2435,-7.2419,-7.2712,-7.2762,-7.2977,-7.2613,-7.2618,-7.2622,0,-7.1348,-7.141,-7.1447,-7.148,-7.1537,-7.1615,-7.1731,-7.1815,-7.1867,-7.1924,-7.2019,-7.2144,-7.2086,-7.2131,-7.2109,-7.2191,-7.2378,-7.2117,-7.2118,-7.2163,-7.2589,-7.2636,-7.2672,-7.2344,-7.235,-7.2355,-7.2584,0,-7.103,-7.1134,-7.1233,-7.1313,-7.1371,-7.1494,-7.1484,-7.1546,-7.1519,-7.1523,-7.1664,-7.1698,-7.1782,-7.1821,-7.1796,-7.1989,-7.1954,-7.1892,-7.1786,-7.1979,-7.2053,-7.2084,-7.1675,-7.1672,-7.1669,-7.1667,0,0,-7.0742,-7.0891,-7.0866,-7.098,-7.1028,-7.0958,-7.1089,-7.1127,-7.1207,-7.1241,-7.1182,-7.1365,-7.1396,-7.1567,-7.1627,-7.1662,-7.1694,-7.1628,-7.1887,-7.1912,-7.1935,-7.2015,-7.2048,-7.1662,-7.1661,-7.166,-7.1659,0,-7.0625,-7.0662,-7.0793,-7.0832,-7.0889,-7.0888,-7.092,-7.0964,-7.0973,-7.1113,-7.1052,-7.1135,-7.1285,-7.1324,-7.1363,-7.1607,-7.1556,-7.1634,-7.1768,-7.1861,-7.1889,-7.1914,-7.1999,-7.203,-7.1653,-7.1653,-7.1653,0,-7.0391,-7.0425,-7.0489,-7.0598,-7.0635,-7.0733,-7.0619,-7.0729,-7.0801,-7.0719,-7.0859,-7.0876,-7.0929,-7.1094,-7.1168,-7.1116,-7.1431,-7.1331,-7.1348,-7.1356,-7.1445,-7.1479,-7.1509,-7.111,-7.1109,-7.1107,0,0,-7.0291,-7.0388,-7.0417,-7.0572,-7.0599,-7.06,-7.0652,-7.0631,-7.0682,-7.0703,-7.0725,-7.0775,-7.086,-7.0917,-7.0997,-7.118,-7.1188,-7.1265,-7.129,-7.1311,-7.1331,-7.1426,-7.1459,-7.11,-7.11,-7.1099,0,0,-7.0243,-7.0283,-7.0248,-7.0427,-7.0478,-7.0516,-7.061,-7.0567,-7.0639,-7.0624,-7.0592,-7.0605,-7.0759,-7.0779,-7.0687,-7.0958,-7.0854,-7.0876,-7.094,-7.0972,-7.0997,-7.0989,-7.0575,0,0,0,0,0,-7.0119,-7.0278,-7.0246,-7.0275,-7.0413,-7.0534,-7.0551,-7.053,-7.0455,-7.053,-7.0541,-7.0484,-7.0722,-7.064,-7.0668,-7.0771,-7.101,-7.1026,-7.1041,-7.1167,-7.1201,-7.1229,0,0,0,0,0,0,-7.013,-7.0166,-7.0241,-7.0287,-7.0317,-7.0528,-7.0397,-7.0396,-7.0447,-7.0434,-7.0484,-7.0486,-7.0469,-7.0624,-7.065,-7.0748,-7.0566,-7.1016,-7.103,-7.1042,-7.1179,-7.1206,-7.123,0,0,0,0,0,-7.0139,-7.0167,-7.0395,-7.0284,-7.0311,-7.0321,-7.0391,-7.0389,-7.0428,-7.0447,-7.0447,-7.0408,-7.0473,-7.0493,-7.0639,-7.0737,-7.0548,-7.0558,-7.1025,-7.1036,-7.1045,-7.1192,0,0,0,0,0,0,-7.0145,-7.0165,-7.04,-7.0407,-7.0223,-7.0309,-7.0321,-7.0383,-7.0437,-7.0439,-7.0368,-7.0358,-7.0477,-7.0492,-7.0508,-7.0735,-7.0534,-7.0544,-7.055,-7.1033,-7.1042,-7.1049,0,0,0,0,0,0,-7.015,-7.0172,-7.0403,-7.0328,-7.0326,-7.0297,-7.0309,-7.0431,-7.0438,-7.0355,-7.0347,-7.0363,-7.0453,-7.0492,-7.0504,-7.0695,-7.0523,-7.0532,-7.0538,-7.0543,-7.104,-7.1047,0,0,0,0,0,0,-7.0159,-7.0178,-7.0326,-7.0325,-7.0323,-7.0402,-7.0404,-7.0546,-7.0375,-7.0353,-7.0359,-7.0352,-7.0455,-7.0466,-7.0502,-7.0688,-7.0693,-7.0523,-7.0529,-7.0534,-7.0537,0,0,0,0,0,0,0,-7.0166,-7.0044,-7.0357,-7.0322,-7.032,-7.0474,-7.0476,-7.0478,-7.0374,-7.0367,-7.0361,-7.0355,-7.0469,-7.0479,-7.049,-7.0683,0,0,-7.0522,-7.0526,0,0,0,0,0,0,0,0,-7.0035,-7.0042,-7.0357,-7.0359,-7.036,-7.0474,-7.0476,-7.0477,-7.0373,-7.0368,-7.0362,-7.0357,-7.0472,-7.048,-7.0489,0,0,0,0,0,0,0,0,0,0,0,0,0,0,0,-7.0357,-7.0359,0,-7.0474,-7.0476,-7.0477,-7.0372,-7.0368,-7.0363,-7.0359,-7.0474,-7.0481,-7.0488,0,0,0,0,0,0,0,0,0,0,0,0,0,0,0,0,0,0,0,0,0,0,0,0,0,0,0,0,0,0,0,0,0,0,0,0,0,0,0,0,0,0,0,0,0,0,0,0,0,0,0,0,0,0,0,0,0,0,0,0,0,0,0,0,0,0,0,0,0]}]]]